Starlink 31416

operational
NORAD ID: 59355 Int'l Des: 2024-060 Owner: SPXS Country: US Constellation: starlink
LEOCIRCULAR

关于 Starlink 31416

正在加载描述...

实时位置

正在加载3D地球...

即将过境

高度历史

Altitude vs Time

uPlot chart will show altitude changes over time

两行轨道根数

1 59355U 24060H 25353.27369996 .00001209 00000-0 53447-4 0 9997
2 59355 43.0038 354.0560 0001338 246.0538 114.0174 15.27580769 97760
Epoch: Dec 19, 2025 • Age: 19 hours

当前状态

高度 484.4 km
速度 7.63 km/s
星下点 29.71°N, 85.88°W
发射日期 Mar 31, 2024
运行时间 1.7 years
类型 internet

技术详情

分类 Payload
质量 730.00 kg
干质量 700.00 kg
总质量 730.00 kg
长度 0.30 m
直径 4.10 m
跨度 29.00 m
形状 Box + pan
制造商 SPXS
平台类型 Starlink V2M
阶段状态 In Orbit
所有者/国家 SPXS/US

大型星座

Loading constellations...